contact:dominique.lefevre@mio.osupytheas.fr, maurice.libes@osupytheas.fr, didier.mallarino@osupytheas.fr
Project:EMSO http://www.emso-fr.org/EMSO-France
Depth: 2436.0 m
Title:EMSO Ligure Ouest : Data MII capteur MICROCAT
DateTime_Computer,Latitude,Longitude,Temperature,Conductivity,Pressure,DateTime_Instrument
DateTime_Computer,Latitude,Longitude,degC,S m-1,dbar,DateTime_Instrument
2023-01-19T00:00:58Z,42.805,6.029,13.3106,4.60135,2470.53,2023-1-19T02:07:18Z
2023-01-19T00:04:01Z,42.805,6.029,13.3043,4.60183,2470.53,2023-1-19T02:10:21Z
2023-01-19T00:07:04Z,42.805,6.029,13.3048,4.60144,2470.544,2023-1-19T02:13:24Z
2023-01-19T00:10:07Z,42.805,6.029,13.3066,4.60198,2470.52,2023-1-19T02:16:28Z
2023-01-19T00:13:10Z,42.805,6.029,13.3075,4.60157,2470.544,2023-1-19T02:19:31Z
2023-01-19T00:16:13Z,42.805,6.029,13.3070,4.60138,2470.544,2023-1-19T02:22:34Z
2023-01-19T00:19:16Z,42.805,6.029,13.3073,4.60131,2470.544,2023-1-19T02:25:37Z
2023-01-19T00:22:20Z,42.805,6.029,13.3043,4.60140,2470.544,2023-1-19T02:28:40Z
2023-01-19T00:25:23Z,42.805,6.029,13.3059,4.60188,2470.52,2023-1-19T02:31:43Z
2023-01-19T00:28:26Z,42.805,6.029,13.3047,4.60157,2470.567,2023-1-19T02:34:46Z
2023-01-19T00:31:29Z,42.805,6.029,13.3043,4.60145,2470.53,2023-1-19T02:37:49Z
2023-01-19T00:34:32Z,42.805,6.029,13.3067,4.60117,2470.544,2023-1-19T02:40:52Z
2023-01-19T00:37:35Z,42.805,6.029,13.3053,4.60119,2470.53,2023-1-19T02:43:55Z
2023-01-19T00:40:38Z,42.805,6.029,13.3048,4.60148,2470.567,2023-1-19T02:46:58Z
2023-01-19T00:43:41Z,42.805,6.029,13.3064,4.60165,2470.544,2023-1-19T02:50:02Z
2023-01-19T00:46:44Z,42.805,6.029,13.3089,4.60147,2470.553,2023-1-19T02:53:05Z
2023-01-19T00:49:47Z,42.805,6.029,13.3067,4.60148,2470.53,2023-1-19T02:56:08Z
2023-01-19T00:52:50Z,42.805,6.029,13.3087,4.60175,2470.53,2023-1-19T02:59:11Z
2023-01-19T00:55:53Z,42.805,6.029,13.3054,4.60183,2470.591,2023-1-19T03:02:14Z
2023-01-19T00:58:57Z,42.805,6.029,13.3071,4.60158,2470.553,2023-1-19T03:05:17Z
2023-01-19T01:02:00Z,42.805,6.029,13.3044,4.60133,2470.567,2023-1-19T03:08:20Z
2023-01-19T01:05:03Z,42.805,6.029,13.3041,4.60225,2470.553,2023-1-19T03:11:23Z
2023-01-19T01:08:06Z,42.805,6.029,13.3073,4.60178,2470.53,2023-1-19T03:14:26Z
2023-01-19T01:11:09Z,42.805,6.029,13.3083,4.60126,2470.567,2023-1-19T03:17:29Z
2023-01-19T01:14:12Z,42.805,6.029,13.3091,4.60148,2470.53,2023-1-19T03:20:32Z
2023-01-19T01:17:15Z,42.805,6.029,13.3058,4.60132,2470.567,2023-1-19T03:23:36Z
2023-01-19T01:20:18Z,42.805,6.029,13.3070,4.60120,2470.553,2023-1-19T03:26:39Z
2023-01-19T01:23:21Z,42.805,6.029,13.3046,4.60112,2470.567,2023-1-19T03:29:42Z
2023-01-19T01:26:24Z,42.805,6.029,13.3049,4.60118,2470.577,2023-1-19T03:32:45Z
2023-01-19T01:29:27Z,42.805,6.029,13.3046,4.60114,2470.591,2023-1-19T03:35:48Z
2023-01-19T01:32:31Z,42.805,6.029,13.3039,4.60110,2470.591,2023-1-19T03:38:51Z
2023-01-19T01:35:34Z,42.805,6.029,13.3043,4.60146,2470.553,2023-1-19T03:41:54Z
2023-01-19T01:38:37Z,42.805,6.029,13.3053,4.60111,2470.53,2023-1-19T03:44:57Z
2023-01-19T01:41:40Z,42.805,6.029,13.3061,4.60104,2470.591,2023-1-19T03:48:00Z
2023-01-19T01:44:43Z,42.805,6.029,13.3042,4.60177,2470.591,2023-1-19T03:51:03Z
2023-01-19T01:47:46Z,42.805,6.029,13.3042,4.60114,2470.614,2023-1-19T03:54:06Z
2023-01-19T01:50:49Z,42.805,6.029,13.3115,4.60125,2470.577,2023-1-19T03:57:10Z
2023-01-19T01:53:52Z,42.805,6.029,13.3099,4.60140,2470.553,2023-1-19T04:00:13Z
2023-01-19T01:56:55Z,42.805,6.029,13.3091,4.60124,2470.614,2023-1-19T04:03:16Z
2023-01-19T01:59:58Z,42.805,6.029,13.3081,4.60137,2470.577,2023-1-19T04:06:19Z
2023-01-19T02:03:01Z,42.805,6.029,13.3070,4.60127,2470.6,2023-1-19T04:09:22Z
2023-01-19T02:06:04Z,42.805,6.029,13.3061,4.60114,2470.591,2023-1-19T04:12:25Z
2023-01-19T02:09:08Z,42.805,6.029,13.3053,4.60156,2470.577,2023-1-19T04:15:28Z
2023-01-19T02:12:11Z,42.805,6.029,13.3051,4.60158,2470.614,2023-1-19T04:18:31Z
2023-01-19T02:15:14Z,42.805,6.029,13.3057,4.60127,2470.637,2023-1-19T04:21:34Z
2023-01-19T02:18:17Z,42.805,6.029,13.3054,4.60121,2470.614,2023-1-19T04:24:37Z
2023-01-19T02:21:20Z,42.805,6.029,13.3067,4.60133,2470.6,2023-1-19T04:27:40Z
2023-01-19T02:24:23Z,42.805,6.029,13.3059,4.60144,2470.624,2023-1-19T04:30:44Z
2023-01-19T02:27:26Z,42.805,6.029,13.3070,4.60122,2470.6,2023-1-19T04:33:47Z
2023-01-19T02:30:29Z,42.805,6.029,13.3050,4.60111,2470.591,2023-1-19T04:36:50Z
2023-01-19T02:33:32Z,42.805,6.029,13.3047,4.60146,2470.624,2023-1-19T04:39:53Z
2023-01-19T02:36:35Z,42.805,6.029,13.3058,4.60174,2470.614,2023-1-19T04:42:56Z
2023-01-19T02:39:38Z,42.805,6.029,13.3059,4.60166,2470.646,2023-1-19T04:45:59Z
2023-01-19T02:42:42Z,42.805,6.029,13.3040,4.60167,2470.6,2023-1-19T04:49:02Z
2023-01-19T02:45:45Z,42.805,6.029,13.3074,4.60152,2470.614,2023-1-19T04:52:05Z
2023-01-19T02:48:48Z,42.805,6.029,13.3056,4.60152,2470.6,2023-1-19T04:55:08Z
2023-01-19T02:51:51Z,42.805,6.029,13.3055,4.60142,2470.637,2023-1-19T04:58:11Z
2023-01-19T02:54:54Z,42.805,6.029,13.3048,4.60106,2470.646,2023-1-19T05:01:14Z
2023-01-19T02:57:57Z,42.805,6.029,13.3043,4.60121,2470.6,2023-1-19T05:04:17Z
2023-01-19T03:01:00Z,42.805,6.029,13.3039,4.60119,2470.637,2023-1-19T05:07:21Z
2023-01-19T03:04:03Z,42.805,6.029,13.3041,4.60119,2470.646,2023-1-19T05:10:24Z
2023-01-19T03:07:06Z,42.805,6.029,13.3039,4.60125,2470.661,2023-1-19T05:13:27Z
2023-01-19T03:10:09Z,42.805,6.029,13.3042,4.60172,2470.6,2023-1-19T05:16:30Z
2023-01-19T03:13:12Z,42.805,6.029,13.3043,4.60160,2470.637,2023-1-19T05:19:33Z
2023-01-19T03:16:16Z,42.805,6.029,13.3051,4.60121,2470.6,2023-1-19T05:22:36Z
2023-01-19T03:19:19Z,42.805,6.029,13.3036,4.60144,2470.661,2023-1-19T05:25:39Z
2023-01-19T03:22:22Z,42.805,6.029,13.3036,4.60137,2470.646,2023-1-19T05:28:42Z
2023-01-19T03:25:25Z,42.805,6.029,13.3043,4.60111,2470.646,2023-1-19T05:31:45Z
2023-01-19T03:28:28Z,42.805,6.029,13.3038,4.60163,2470.661,2023-1-19T05:34:48Z
2023-01-19T03:31:31Z,42.805,6.029,13.3039,4.60174,2470.661,2023-1-19T05:37:51Z
2023-01-19T03:34:34Z,42.805,6.029,13.3041,4.60127,2470.624,2023-1-19T05:40:55Z
2023-01-19T03:37:37Z,42.805,6.029,13.3043,4.60146,2470.646,2023-1-19T05:43:58Z
2023-01-19T03:40:40Z,42.805,6.029,13.3053,4.60186,2470.646,2023-1-19T05:47:01Z
2023-01-19T03:43:43Z,42.805,6.029,13.3035,4.60117,2470.684,2023-1-19T05:50:04Z
2023-01-19T03:46:46Z,42.805,6.029,13.3045,4.60128,2470.624,2023-1-19T05:53:07Z
2023-01-19T03:49:50Z,42.805,6.029,13.3039,4.60139,2470.646,2023-1-19T05:56:10Z
2023-01-19T03:52:53Z,42.805,6.029,13.3043,4.60146,2470.693,2023-1-19T05:59:13Z
2023-01-19T03:55:56Z,42.805,6.029,13.3039,4.60147,2470.684,2023-1-19T06:02:16Z
2023-01-19T03:58:59Z,42.805,6.029,13.3049,4.60162,2470.67,2023-1-19T06:05:19Z
2023-01-19T04:02:02Z,42.805,6.029,13.3043,4.60134,2470.67,2023-1-19T06:08:22Z
2023-01-19T04:05:05Z,42.805,6.029,13.3048,4.60157,2470.661,2023-1-19T06:11:25Z
2023-01-19T04:08:08Z,42.805,6.029,13.3042,4.60117,2470.693,2023-1-19T06:14:29Z
2023-01-19T04:11:11Z,42.805,6.029,13.3031,4.60101,2470.693,2023-1-19T06:17:32Z
2023-01-19T04:14:14Z,42.805,6.029,13.3052,4.60106,2470.693,2023-1-19T06:20:35Z
2023-01-19T04:17:17Z,42.805,6.029,13.3044,4.60114,2470.661,2023-1-19T06:23:38Z
2023-01-19T04:20:20Z,42.805,6.029,13.3035,4.60143,2470.73,2023-1-19T06:26:41Z
2023-01-19T04:23:23Z,42.805,6.029,13.3032,4.60115,2470.684,2023-1-19T06:29:44Z
2023-01-19T04:26:27Z,42.805,6.029,13.3041,4.60117,2470.646,2023-1-19T06:32:47Z
2023-01-19T04:29:30Z,42.805,6.029,13.3046,4.60175,2470.693,2023-1-19T06:35:50Z
2023-01-19T04:32:33Z,42.805,6.029,13.3078,4.60137,2470.707,2023-1-19T06:38:53Z
2023-01-19T04:35:36Z,42.805,6.029,13.3055,4.60138,2470.693,2023-1-19T06:41:56Z
2023-01-19T04:38:39Z,42.805,6.029,13.3049,4.60109,2470.707,2023-1-19T06:44:59Z
2023-01-19T04:41:42Z,42.805,6.029,13.3066,4.60186,2470.707,2023-1-19T06:48:02Z
2023-01-19T04:44:45Z,42.805,6.029,13.3051,4.60130,2470.717,2023-1-19T06:51:06Z
2023-01-19T04:47:48Z,42.805,6.029,13.3036,4.60180,2470.73,2023-1-19T06:54:09Z
2023-01-19T04:50:51Z,42.805,6.029,13.3034,4.60165,2470.67,2023-1-19T06:57:12Z
2023-01-19T04:53:54Z,42.805,6.029,13.3033,4.60184,2470.73,2023-1-19T07:00:15Z
2023-01-19T04:56:57Z,42.805,6.029,13.3034,4.60156,2470.693,2023-1-19T07:03:18Z
2023-01-19T05:00:00Z,42.805,6.029,13.3044,4.60095,2470.717,2023-1-19T07:06:21Z
2023-01-19T05:03:04Z,42.805,6.029,13.3029,4.60146,2470.717,2023-1-19T07:09:24Z
2023-01-19T05:06:07Z,42.805,6.029,13.3037,4.60180,2470.646,2023-1-19T07:12:27Z
2023-01-19T05:09:10Z,42.805,6.029,13.3046,4.60175,2470.693,2023-1-19T07:15:30Z
2023-01-19T05:12:13Z,42.805,6.029,13.3055,4.60150,2470.693,2023-1-19T07:18:33Z
2023-01-19T05:15:16Z,42.805,6.029,13.3052,4.60174,2470.73,2023-1-19T07:21:36Z
2023-01-19T05:18:19Z,42.805,6.029,13.3067,4.60180,2470.693,2023-1-19T07:24:40Z
2023-01-19T05:21:22Z,42.805,6.029,13.3069,4.60154,2470.693,2023-1-19T07:27:43Z
2023-01-19T05:24:25Z,42.805,6.029,13.3080,4.60149,2470.693,2023-1-19T07:30:46Z
2023-01-19T05:27:28Z,42.805,6.029,13.3081,4.60163,2470.693,2023-1-19T07:33:49Z
2023-01-19T05:30:31Z,42.805,6.029,13.3061,4.60155,2470.693,2023-1-19T07:36:52Z
2023-01-19T05:33:34Z,42.805,6.029,13.3063,4.60160,2470.717,2023-1-19T07:39:55Z
2023-01-19T05:36:38Z,42.805,6.029,13.3068,4.60147,2470.693,2023-1-19T07:42:58Z
2023-01-19T05:39:41Z,42.805,6.029,13.3046,4.60152,2470.717,2023-1-19T07:46:01Z
2023-01-19T05:42:44Z,42.805,6.029,13.3071,4.60173,2470.693,2023-1-19T07:49:04Z
2023-01-19T05:45:47Z,42.805,6.029,13.3058,4.60157,2470.693,2023-1-19T07:52:07Z
2023-01-19T05:48:50Z,42.805,6.029,13.3078,4.60125,2470.707,2023-1-19T07:55:10Z
2023-01-19T05:51:53Z,42.805,6.029,13.3073,4.60131,2470.73,2023-1-19T07:58:14Z
2023-01-19T05:54:56Z,42.805,6.029,13.3084,4.60121,2470.707,2023-1-19T08:01:17Z
2023-01-19T05:57:59Z,42.805,6.029,13.3091,4.60144,2470.717,2023-1-19T08:04:20Z
2023-01-19T06:01:02Z,42.805,6.029,13.3082,4.60111,2470.693,2023-1-19T08:07:23Z
2023-01-19T06:04:05Z,42.805,6.029,13.3065,4.60168,2470.646,2023-1-19T08:10:26Z
2023-01-19T06:07:08Z,42.805,6.029,13.3091,4.60140,2470.707,2023-1-19T08:13:29Z
2023-01-19T06:10:11Z,42.805,6.029,13.3091,4.60144,2470.67,2023-1-19T08:16:32Z
2023-01-19T06:13:15Z,42.805,6.029,13.3085,4.60112,2470.684,2023-1-19T08:19:35Z
2023-01-19T06:16:18Z,42.805,6.029,13.3082,4.60127,2470.684,2023-1-19T08:22:38Z
2023-01-19T06:19:21Z,42.805,6.029,13.3072,4.60148,2470.693,2023-1-19T08:25:41Z
2023-01-19T06:22:24Z,42.805,6.029,13.3094,4.60123,2470.693,2023-1-19T08:28:44Z
2023-01-19T06:25:27Z,42.805,6.029,13.3074,4.60116,2470.693,2023-1-19T08:31:48Z
2023-01-19T06:28:30Z,42.805,6.029,13.3077,4.60119,2470.693,2023-1-19T08:34:51Z
2023-01-19T06:31:33Z,42.805,6.029,13.3069,4.60102,2470.693,2023-1-19T08:37:54Z
2023-01-19T06:34:36Z,42.805,6.029,13.3083,4.60148,2470.693,2023-1-19T08:40:57Z
2023-01-19T06:37:39Z,42.805,6.029,13.3085,4.60140,2470.73,2023-1-19T08:44:00Z
2023-01-19T06:40:42Z,42.805,6.029,13.3077,4.60137,2470.707,2023-1-19T08:47:03Z
2023-01-19T06:43:45Z,42.805,6.029,13.3076,4.60182,2470.707,2023-1-19T08:50:06Z
2023-01-19T06:46:49Z,42.805,6.029,13.3089,4.60125,2470.684,2023-1-19T08:53:09Z
2023-01-19T06:49:52Z,42.805,6.029,13.3085,4.60123,2470.679,2023-1-19T08:56:12Z
2023-01-19T06:52:55Z,42.805,6.029,13.3082,4.60135,2470.693,2023-1-19T08:59:15Z
2023-01-19T06:55:58Z,42.805,6.029,13.3091,4.60104,2470.707,2023-1-19T09:02:18Z
2023-01-19T06:59:01Z,42.805,6.029,13.3046,4.60135,2470.693,2023-1-19T09:05:21Z
2023-01-19T07:02:04Z,42.805,6.029,13.3051,4.60114,2470.707,2023-1-19T09:08:25Z
2023-01-19T07:05:07Z,42.805,6.029,13.3063,4.60100,2470.717,2023-1-19T09:11:28Z
2023-01-19T07:08:10Z,42.805,6.029,13.3057,4.60118,2470.707,2023-1-19T09:14:31Z
2023-01-19T07:11:13Z,42.805,6.029,13.3062,4.60141,2470.693,2023-1-19T09:17:34Z
2023-01-19T07:14:16Z,42.805,6.029,13.3042,4.60137,2470.73,2023-1-19T09:20:37Z
2023-01-19T07:17:19Z,42.805,6.029,13.3063,4.60198,2470.717,2023-1-19T09:23:40Z
2023-01-19T07:20:22Z,42.805,6.029,13.3065,4.60142,2470.73,2023-1-19T09:26:43Z
2023-01-19T07:23:26Z,42.805,6.029,13.3086,4.60170,2470.693,2023-1-19T09:29:46Z
2023-01-19T07:26:29Z,42.805,6.029,13.3067,4.60173,2470.707,2023-1-19T09:32:49Z
2023-01-19T07:29:32Z,42.805,6.029,13.3080,4.60155,2470.67,2023-1-19T09:35:52Z
2023-01-19T07:32:35Z,42.805,6.029,13.3074,4.60176,2470.707,2023-1-19T09:38:55Z
2023-01-19T07:35:38Z,42.805,6.029,13.3079,4.60106,2470.717,2023-1-19T09:41:59Z
2023-01-19T07:38:41Z,42.805,6.029,13.3067,4.60117,2470.693,2023-1-19T09:45:02Z
2023-01-19T07:41:44Z,42.805,6.029,13.3070,4.60131,2470.67,2023-1-19T09:48:05Z
2023-01-19T07:44:47Z,42.805,6.029,13.3063,4.60147,2470.707,2023-1-19T09:51:08Z
2023-01-19T07:47:50Z,42.805,6.029,13.3078,4.60157,2470.693,2023-1-19T09:54:11Z
2023-01-19T07:50:53Z,42.805,6.029,13.3047,4.60169,2470.646,2023-1-19T09:57:14Z
2023-01-19T07:53:56Z,42.805,6.029,13.3054,4.60115,2470.67,2023-1-19T10:00:17Z
2023-01-19T07:57:00Z,42.805,6.029,13.3065,4.60107,2470.684,2023-1-19T10:03:20Z
2023-01-19T08:00:03Z,42.805,6.029,13.3056,4.60114,2470.646,2023-1-19T10:06:23Z
2023-01-19T08:03:06Z,42.805,6.029,13.3065,4.60135,2470.707,2023-1-19T10:09:26Z
2023-01-19T08:06:09Z,42.805,6.029,13.3066,4.60155,2470.684,2023-1-19T10:12:29Z
2023-01-19T08:09:12Z,42.805,6.029,13.3076,4.60160,2470.684,2023-1-19T10:15:33Z
2023-01-19T08:12:15Z,42.805,6.029,13.3079,4.60110,2470.684,2023-1-19T10:18:36Z
2023-01-19T08:15:18Z,42.805,6.029,13.3068,4.60112,2470.67,2023-1-19T10:21:39Z
2023-01-19T08:18:21Z,42.805,6.029,13.3082,4.60128,2470.684,2023-1-19T10:24:42Z
2023-01-19T08:21:24Z,42.805,6.029,13.3098,4.60133,2470.684,2023-1-19T10:27:45Z
2023-01-19T08:24:27Z,42.805,6.029,13.3053,4.60109,2470.693,2023-1-19T10:30:48Z
2023-01-19T08:27:30Z,42.805,6.029,13.3055,4.60125,2470.707,2023-1-19T10:33:51Z
2023-01-19T08:30:34Z,42.805,6.029,13.3085,4.60126,2470.707,2023-1-19T10:36:54Z
2023-01-19T08:33:37Z,42.805,6.029,13.3077,4.60173,2470.717,2023-1-19T10:39:57Z
2023-01-19T08:36:40Z,42.805,6.029,13.3071,4.60125,2470.707,2023-1-19T10:43:00Z
2023-01-19T08:39:43Z,42.805,6.029,13.3090,4.60109,2470.67,2023-1-19T10:46:03Z
2023-01-19T08:42:46Z,42.805,6.029,13.3104,4.60137,2470.67,2023-1-19T10:49:07Z
2023-01-19T08:45:49Z,42.805,6.029,13.3088,4.60093,2470.684,2023-1-19T10:52:10Z
2023-01-19T08:48:52Z,42.805,6.029,13.3073,4.60087,2470.684,2023-1-19T10:55:13Z
2023-01-19T08:51:55Z,42.805,6.029,13.3071,4.60115,2470.684,2023-1-19T10:58:16Z
2023-01-19T08:54:58Z,42.805,6.029,13.3055,4.60143,2470.684,2023-1-19T11:01:19Z
2023-01-19T08:58:01Z,42.805,6.029,13.3058,4.60172,2470.67,2023-1-19T11:04:22Z
2023-01-19T09:01:04Z,42.805,6.029,13.3083,4.60169,2470.661,2023-1-19T11:07:25Z
2023-01-19T09:04:08Z,42.805,6.029,13.3052,4.60116,2470.661,2023-1-19T11:10:28Z
2023-01-19T09:07:11Z,42.805,6.029,13.3058,4.60157,2470.67,2023-1-19T11:13:31Z
2023-01-19T09:10:14Z,42.805,6.029,13.3067,4.60151,2470.637,2023-1-19T11:16:34Z
2023-01-19T09:13:17Z,42.805,6.029,13.3074,4.60125,2470.67,2023-1-19T11:19:37Z
2023-01-19T09:16:20Z,42.805,6.029,13.3064,4.60121,2470.637,2023-1-19T11:22:41Z
2023-01-19T09:19:23Z,42.805,6.029,13.3081,4.60105,2470.646,2023-1-19T11:25:44Z
2023-01-19T09:22:26Z,42.805,6.029,13.3087,4.60098,2470.67,2023-1-19T11:28:47Z
2023-01-19T09:25:29Z,42.805,6.029,13.3084,4.60129,2470.637,2023-1-19T11:31:50Z
2023-01-19T09:28:32Z,42.805,6.029,13.3071,4.60110,2470.684,2023-1-19T11:34:53Z
2023-01-19T09:31:35Z,42.805,6.029,13.3078,4.60119,2470.646,2023-1-19T11:37:56Z
2023-01-19T09:34:38Z,42.805,6.029,13.3029,4.60096,2470.624,2023-1-19T11:40:59Z
2023-01-19T09:37:42Z,42.805,6.029,13.3050,4.60122,2470.67,2023-1-19T11:44:02Z
2023-01-19T09:40:45Z,42.805,6.029,13.3056,4.60093,2470.661,2023-1-19T11:47:05Z
2023-01-19T09:43:48Z,42.805,6.029,13.3063,4.60146,2470.624,2023-1-19T11:50:08Z
2023-01-19T09:46:51Z,42.805,6.029,13.3062,4.60101,2470.646,2023-1-19T11:53:11Z
2023-01-19T09:49:54Z,42.805,6.029,13.3063,4.60130,2470.661,2023-1-19T11:56:15Z
2023-01-19T09:52:57Z,42.805,6.029,13.3062,4.60105,2470.624,2023-1-19T11:59:18Z
2023-01-19T09:56:00Z,42.805,6.029,13.3059,4.60100,2470.646,2023-1-19T12:02:21Z
2023-01-19T09:59:03Z,42.805,6.029,13.3057,4.60140,2470.637,2023-1-19T12:05:24Z
2023-01-19T10:02:06Z,42.805,6.029,13.3061,4.60108,2470.646,2023-1-19T12:08:27Z
2023-01-19T10:05:09Z,42.805,6.029,13.3062,4.60114,2470.637,2023-1-19T12:11:30Z
2023-01-19T10:08:12Z,42.805,6.029,13.3046,4.60141,2470.661,2023-1-19T12:14:33Z
2023-01-19T10:11:16Z,42.805,6.029,13.3043,4.60165,2470.624,2023-1-19T12:17:36Z
2023-01-19T10:14:19Z,42.805,6.029,13.3041,4.60213,2470.661,2023-1-19T12:20:39Z
2023-01-19T10:17:22Z,42.805,6.029,13.3040,4.60170,2470.624,2023-1-19T12:23:42Z
2023-01-19T10:20:25Z,42.805,6.029,13.3044,4.60140,2470.614,2023-1-19T12:26:46Z
2023-01-19T10:23:28Z,42.805,6.029,13.3054,4.60160,2470.614,2023-1-19T12:29:49Z
2023-01-19T10:26:31Z,42.805,6.029,13.3057,4.60152,2470.646,2023-1-19T12:32:52Z
2023-01-19T10:29:34Z,42.805,6.029,13.3051,4.60152,2470.637,2023-1-19T12:35:55Z
2023-01-19T10:32:37Z,42.805,6.029,13.3048,4.60150,2470.614,2023-1-19T12:38:58Z
2023-01-19T10:35:40Z,42.805,6.029,13.3053,4.60155,2470.591,2023-1-19T12:42:01Z
2023-01-19T10:38:43Z,42.805,6.029,13.3067,4.60143,2470.637,2023-1-19T12:45:04Z
2023-01-19T10:41:46Z,42.805,6.029,13.3056,4.60114,2470.661,2023-1-19T12:48:07Z
2023-01-19T10:44:50Z,42.805,6.029,13.3067,4.60125,2470.614,2023-1-19T12:51:10Z
2023-01-19T10:47:53Z,42.805,6.029,13.3056,4.60150,2470.637,2023-1-19T12:54:13Z
2023-01-19T10:50:56Z,42.805,6.029,13.3070,4.60129,2470.6,2023-1-19T12:57:16Z
2023-01-19T10:53:59Z,42.805,6.029,13.3082,4.60100,2470.6,2023-1-19T13:00:20Z
2023-01-19T10:57:02Z,42.805,6.029,13.3066,4.60109,2470.624,2023-1-19T13:03:23Z
2023-01-19T11:00:05Z,42.805,6.029,13.3065,4.60117,2470.6,2023-1-19T13:06:26Z
2023-01-19T11:03:08Z,42.805,6.029,13.3061,4.60110,2470.6,2023-1-19T13:09:29Z
2023-01-19T11:06:11Z,42.805,6.029,13.3084,4.60079,2470.637,2023-1-19T13:12:32Z
2023-01-19T11:09:14Z,42.805,6.029,13.3095,4.60102,2470.6,2023-1-19T13:15:35Z
2023-01-19T11:12:17Z,42.805,6.029,13.3043,4.60085,2470.6,2023-1-19T13:18:38Z
2023-01-19T11:15:20Z,42.805,6.029,13.3040,4.60106,2470.637,2023-1-19T13:21:41Z
2023-01-19T11:18:24Z,42.805,6.029,13.3044,4.60112,2470.614,2023-1-19T13:24:44Z
2023-01-19T11:21:27Z,42.805,6.029,13.3056,4.60076,2470.6,2023-1-19T13:27:47Z
2023-01-19T11:24:30Z,42.805,6.029,13.3030,4.60094,2470.6,2023-1-19T13:30:50Z
2023-01-19T11:27:33Z,42.805,6.029,13.3027,4.60091,2470.624,2023-1-19T13:33:54Z
2023-01-19T11:30:36Z,42.805,6.029,13.3025,4.60104,2470.637,2023-1-19T13:36:57Z
2023-01-19T11:33:39Z,42.805,6.029,13.3034,4.60084,2470.6,2023-1-19T13:40:00Z
2023-01-19T11:36:42Z,42.805,6.029,13.3034,4.60092,2470.624,2023-1-19T13:43:03Z
2023-01-19T11:39:45Z,42.805,6.029,13.3056,4.60084,2470.6,2023-1-19T13:46:06Z
2023-01-19T11:42:48Z,42.805,6.029,13.3036,4.60105,2470.637,2023-1-19T13:49:09Z
2023-01-19T11:45:51Z,42.805,6.029,13.3046,4.60158,2470.637,2023-1-19T13:52:12Z
2023-01-19T11:48:54Z,42.805,6.029,13.3060,4.60113,2470.6,2023-1-19T13:55:15Z
2023-01-19T11:51:58Z,42.805,6.029,13.3058,4.60137,2470.6,2023-1-19T13:58:18Z
2023-01-19T11:55:01Z,42.805,6.029,13.3061,4.60110,2470.577,2023-1-19T14:01:21Z
2023-01-19T11:58:04Z,42.805,6.029,13.3057,4.60151,2470.637,2023-1-19T14:04:25Z
2023-01-19T12:01:07Z,42.805,6.029,13.3057,4.60128,2470.577,2023-1-19T14:07:28Z
2023-01-19T12:04:10Z,42.805,6.029,13.3053,4.60138,2470.614,2023-1-19T14:10:31Z
2023-01-19T12:07:13Z,42.805,6.029,13.3041,4.60099,2470.624,2023-1-19T14:13:34Z
2023-01-19T12:10:16Z,42.805,6.029,13.3041,4.60101,2470.614,2023-1-19T14:16:37Z
2023-01-19T12:13:19Z,42.805,6.029,13.3041,4.60110,2470.614,2023-1-19T14:19:40Z
2023-01-19T12:16:22Z,42.805,6.029,13.3041,4.60097,2470.577,2023-1-19T14:22:43Z
2023-01-19T12:19:25Z,42.805,6.029,13.3039,4.60100,2470.6,2023-1-19T14:25:46Z
2023-01-19T12:22:29Z,42.805,6.029,13.3053,4.60119,2470.6,2023-1-19T14:28:49Z
2023-01-19T12:25:32Z,42.805,6.029,13.3063,4.60102,2470.614,2023-1-19T14:31:52Z
2023-01-19T12:28:35Z,42.805,6.029,13.3091,4.60087,2470.614,2023-1-19T14:34:55Z
2023-01-19T12:31:38Z,42.805,6.029,13.3017,4.60074,2470.614,2023-1-19T14:37:59Z
2023-01-19T12:34:41Z,42.805,6.029,13.3025,4.60086,2470.624,2023-1-19T14:41:02Z
2023-01-19T12:37:44Z,42.805,6.029,13.3024,4.60110,2470.614,2023-1-19T14:44:05Z
2023-01-19T12:40:47Z,42.805,6.029,13.3048,4.60113,2470.6,2023-1-19T14:47:08Z
2023-01-19T12:43:50Z,42.805,6.029,13.3046,4.60102,2470.586,2023-1-19T14:50:11Z
2023-01-19T12:46:53Z,42.805,6.029,13.3029,4.60070,2470.61,2023-1-19T14:53:14Z
2023-01-19T12:49:56Z,42.805,6.029,13.3015,4.60070,2470.577,2023-1-19T14:56:17Z
2023-01-19T12:52:59Z,42.805,6.029,13.3042,4.60074,2470.577,2023-1-19T14:59:20Z
2023-01-19T12:56:03Z,42.805,6.029,13.3019,4.60082,2470.6,2023-1-19T15:02:23Z
2023-01-19T12:59:06Z,42.805,6.029,13.3034,4.60090,2470.624,2023-1-19T15:05:26Z
2023-01-19T13:02:09Z,42.805,6.029,13.3021,4.60074,2470.637,2023-1-19T15:08:29Z
2023-01-19T13:05:12Z,42.805,6.029,13.3013,4.60074,2470.6,2023-1-19T15:11:33Z
2023-01-19T13:08:15Z,42.805,6.029,13.3012,4.60070,2470.553,2023-1-19T15:14:36Z
2023-01-19T13:11:18Z,42.805,6.029,13.3016,4.60068,2470.577,2023-1-19T15:17:39Z
2023-01-19T13:14:21Z,42.805,6.029,13.3012,4.60067,2470.6,2023-1-19T15:20:42Z
2023-01-19T13:17:24Z,42.805,6.029,13.3014,4.60068,2470.624,2023-1-19T15:23:45Z
2023-01-19T13:20:27Z,42.805,6.029,13.3016,4.60069,2470.6,2023-1-19T15:26:48Z
2023-01-19T13:23:30Z,42.805,6.029,13.3013,4.60071,2470.624,2023-1-19T15:29:51Z
2023-01-19T13:26:33Z,42.805,6.029,13.3013,4.60069,2470.624,2023-1-19T15:32:54Z
2023-01-19T13:29:37Z,42.805,6.029,13.3016,4.60080,2470.6,2023-1-19T15:35:57Z
2023-01-19T13:32:40Z,42.805,6.029,13.3015,4.60070,2470.624,2023-1-19T15:39:00Z
2023-01-19T13:35:43Z,42.805,6.029,13.3016,4.60070,2470.624,2023-1-19T15:42:04Z
2023-01-19T13:38:46Z,42.805,6.029,13.3015,4.60072,2470.637,2023-1-19T15:45:07Z
2023-01-19T13:41:49Z,42.805,6.029,13.3018,4.60068,2470.624,2023-1-19T15:48:10Z
2023-01-19T13:44:52Z,42.805,6.029,13.3017,4.60069,2470.624,2023-1-19T15:51:13Z
2023-01-19T13:47:55Z,42.805,6.029,13.3014,4.60067,2470.6,2023-1-19T15:54:16Z
2023-01-19T13:50:58Z,42.805,6.029,13.3013,4.60067,2470.624,2023-1-19T15:57:19Z
2023-01-19T13:54:01Z,42.805,6.029,13.3011,4.60070,2470.637,2023-1-19T16:00:22Z
2023-01-19T13:57:04Z,42.805,6.029,13.3015,4.60065,2470.661,2023-1-19T16:03:25Z
2023-01-19T14:00:07Z,42.805,6.029,13.3014,4.60066,2470.624,2023-1-19T16:06:28Z
2023-01-19T14:03:11Z,42.805,6.029,13.3011,4.60069,2470.624,2023-1-19T16:09:31Z
2023-01-19T14:06:14Z,42.805,6.029,13.3009,4.60069,2470.624,2023-1-19T16:12:34Z
2023-01-19T14:09:17Z,42.805,6.029,13.3014,4.60066,2470.646,2023-1-19T16:15:38Z
2023-01-19T14:12:20Z,42.805,6.029,13.3014,4.60067,2470.646,2023-1-19T16:18:41Z
2023-01-19T14:15:23Z,42.805,6.029,13.3012,4.60069,2470.624,2023-1-19T16:21:44Z
2023-01-19T14:18:26Z,42.805,6.029,13.3014,4.60069,2470.684,2023-1-19T16:24:47Z
2023-01-19T14:21:29Z,42.805,6.029,13.3012,4.60069,2470.61,2023-1-19T16:27:50Z
2023-01-19T14:24:32Z,42.805,6.029,13.3015,4.60065,2470.661,2023-1-19T16:30:53Z
2023-01-19T14:27:35Z,42.805,6.029,13.3011,4.60067,2470.646,2023-1-19T16:33:56Z
2023-01-19T14:30:38Z,42.805,6.029,13.3014,4.60066,2470.707,2023-1-19T16:36:59Z
2023-01-19T14:33:41Z,42.805,6.029,13.3014,4.60069,2470.646,2023-1-19T16:40:02Z
2023-01-19T14:36:45Z,42.805,6.029,13.3012,4.60068,2470.67,2023-1-19T16:43:05Z
2023-01-19T14:39:48Z,42.805,6.029,13.3011,4.60069,2470.67,2023-1-19T16:46:08Z
2023-01-19T14:42:51Z,42.805,6.029,13.3014,4.60070,2470.67,2023-1-19T16:49:12Z
2023-01-19T14:45:54Z,42.805,6.029,13.3013,4.60067,2470.67,2023-1-19T16:52:15Z
2023-01-19T14:48:57Z,42.805,6.029,13.3014,4.60067,2470.684,2023-1-19T16:55:18Z
2023-01-19T14:52:00Z,42.805,6.029,13.3011,4.60067,2470.646,2023-1-19T16:58:21Z
2023-01-19T14:55:03Z,42.805,6.029,13.3012,4.60066,2470.67,2023-1-19T17:01:24Z
2023-01-19T14:58:06Z,42.805,6.029,13.3016,4.60068,2470.693,2023-1-19T17:04:27Z
2023-01-19T15:01:09Z,42.805,6.029,13.3015,4.60066,2470.646,2023-1-19T17:07:30Z
2023-01-19T15:04:12Z,42.805,6.029,13.3016,4.60067,2470.661,2023-1-19T17:10:33Z
2023-01-19T15:07:15Z,42.805,6.029,13.3011,4.60068,2470.684,2023-1-19T17:13:36Z
2023-01-19T15:10:19Z,42.805,6.029,13.3014,4.60072,2470.67,2023-1-19T17:16:39Z
2023-01-19T15:13:22Z,42.805,6.029,13.3015,4.60068,2470.67,2023-1-19T17:19:42Z